World > North America > United States > Iowa > North Grand

Hourly North Grand, IA Regional Weather

Feedback E-mail the Weather

Quick WX

North Grand, IA Weather Maps

°F °C°F °C
North Grand Weather Map
UTC Time: 8/14/2022, 14:55
Your Time:

North Grand, IA Regional Weather

Expires:202208141500;;085556
ASUS43 KDMX 141406
RWRIA 

WEATHER ROUNDUP FOR IOWA
NATIONAL WEATHER SERVICE DES MOINES IA
900 AM CDT SUN AUG 14 2022

NOTE: "FAIR" INDICATES FEW OR NO CLOUDS BELOW 12,000 FEET WITH NO
SIGNIFICANT WEATHER AND/OR OBSTRUCTIONS TO VISIBILITY.

* - THESE STATIONS ARE NOT NWS STATIONS...THUS NOT UNDER NWS
QUALITY CONTROL.  THEY ALSO DO NOT REPORT WEATHER SUCH 
AS PRECIPITATION OR FOG.  


IAZ047>049-059>061-072>074-084-141500-
   CENTRAL IOWA
  
CITY           SKY/WX    TMP DP  RH WIND       PRES   REMARKS
AMES           CLOUDY    66  59  78 NE12      30.03S                  
ANKENY *       CLOUDY    66  59  77 NE5G12    30.03F                  
BOONE *        CLOUDY    64  61  88 NE9       30.05S                  
CHARITON *     CLOUDY    66  61  82 N9        30.01                   
DES MOINES     PTSUNNY   67  58  72 N10       30.03S                  
GRINNELL*      CLOUDY    69  63  80 N7        30.03S                  
KNOXVILLE *    CLOUDY    68  59  73 VRB7G13   30.02S                  
MARSHALLTOWN   PTSUNNY   68  60  75 N6        30.01R                  
NEWTON *       CLOUDY    68  63  83 N8        30.01F                  
PELLA *        CLOUDY    67  59  76 N8        30.02S                  
PERRY *        CLOUDY    69  59  70 NE8       30.04S                  
$$
 

SKY/WX - Weather  TMP - Temperature  DP - Dew Point  RH - Humidity
WIND - Wind Direction/Speed PRES - Barometric Pressure VSB - Visibility
WCI - Wind Chill Index E13G22 Wind - East Wind 13 mph/Gusts of 22 mph

Trending Headlines

North Grand Radar Loop



North Grand Quick Facts


National Two Day Weather Forecast


E-mail the North Grand Weather Forecast

Voice your opinion or tell us about page issues...